This demonstration page uses our WeatherBlox Daily Observations layout. Learn more.

Left ArrowRight Arrow

Hourly Observations for October 10, 2015

Temp ( °F °C ) Dew Point ( °F °C ) Humidity (%) Winds ( mph kmh ) Pressure ( in mb ) Visibility ( mi km ) Precip ( " mm )
12:15 am 00:15 Clear 52 11.2 45 7 76 76 S 5 7 30.21 1023 10 16 N/A
12:35 am 00:35 Clear 53 11.6 45 7.1 74 74 S 6 9 30.18 1022 10 16 N/A
12:55 am 00:55 Clear 52 11 45 7.3 78 78 S 6 9 30.18 1022 10 16 N/A
1:15 am 01:15 Clear 52 11.1 45 7.2 77 77 S 6 9 30.18 1022 10 16 N/A
1:35 am 01:35 Clear 53 11.5 45 7.2 75 75 S 6 9 30.15 1021 10 16 N/A
1:55 am 01:55 Clear 52 11.3 45 7.3 77 77 S 7 11 30.18 1022 10 16 N/A
2:15 am 02:15 Clear 53 11.5 45 7.2 75 75 S 7 11 30.15 1021 10 16 N/A
2:35 am 02:35 Clear 52 11.3 45 7.2 76 76 S 7 11 30.18 1022 10 16 N/A
2:55 am 02:55 Clear 52 11 45 7.2 78 78 S 8 13 30.18 1022 10 16 N/A
3:15 am 03:15 Clear 53 11.4 45 7.3 76 76 S 7 11 30.18 1022 10 16 N/A
3:35 am 03:35 Clear 52 11.3 45 7.2 76 76 S 5 7 30.15 1021 10 16 N/A
3:55 am 03:55 Clear 52 10.9 45 7.1 78 78 Calm 30.15 1021 10 16 N/A
4:15 am 04:15 Clear 53 11.8 46 7.6 76 76 SSW 3 6 30.09 1019 10 16 N/A
4:35 am 04:35 Clear 55 12.9 46 7.8 71 71 SSW 6 9 30.09 1019 10 16 N/A
4:55 am 04:55 Clear 56 13.1 46 7.8 70 70 SSW 7 11 30.09 1019 10 16 N/A
5:15 am 05:15 Clear 56 13.3 46 7.8 70 70 SW 6 9 30.09 1019 10 16 N/A
5:35 am 05:35 Clear 56 13.2 46 7.7 70 70 SW 10 17 30.09 1019 10 16 N/A
5:55 am 05:55 Clear 55 13 46 7.7 70 70 SW 5 7 30.09 1019 10 16 N/A
6:15 am 06:15 Clear 55 12.7 46 7.9 73 73 SSW 5 7 30.09 1019 10 16 N/A
6:35 am 06:35 Clear 54 12.3 46 8 75 75 SW 5 7 30.09 1019 10 16 N/A
6:55 am 06:55 Clear 54 12.1 47 8.1 77 77 SW 5 7 30.09 1019 10 16 N/A
7:15 am 07:15 Clear 54 12.1 47 8.2 77 77 SW 6 9 30.09 1019 10 16 N/A
7:35 am 07:35 Clear 53 11.5 47 8.4 81 81 SSW 6 9 30.06 1018 10 16 N/A
7:55 am 07:55 Sunny 53 11.5 47 8.5 82 82 SSW 5 7 30.06 1018 10 16 N/A
8:15 am 08:15 Sunny 53 11.7 48 9 84 84 S 8 13 30.06 1018 10 16 N/A
8:35 am 08:35 Sunny 55 13 49 9.7 81 81 SSW 8 13 30.06 1018 10 16 N/A
8:55 am 08:55 Sunny 58 14.6 51 10.7 78 78 SSW 7 11 30.03 1017 10 16 N/A
9:15 am 09:15 Sunny 59 15.2 52 11.2 77 77 SSW 7 11 30.03 1017 10 16 N/A
9:35 am 09:35 Sunny 61 16.2 53 11.8 75 75 SSW 9 15 30.03 1017 10 16 N/A
9:55 am 09:55 Sunny 62 16.5 53 11.9 74 74 SW 12 19 30.03 1017 10 16 N/A
10:15 am 10:15 Sunny 62 16.6 54 12 74 74 SW 10 17 30.03 1017 10 16 N/A
10:35 am 10:35 Sunny 63 17.2 54 12.2 73 73 SSW 9 15 30.03 1017 10 16 N/A
10:55 am 10:55 Sunny 64 17.5 54 12.3 72 72 SW 9 15 30.00 1016 10 16 N/A
11:15 am 11:15 Sunny 65 18.4 55 12.6 69 69 SSW 12 19 30.00 1016 10 16 N/A
11:35 am 11:35 Sunny 66 19 55 13 68 68 SSW 13 20 29.97 1015 10 16 N/A
11:55 am 11:55 Sunny 67 19.7 56 13.3 67 67 SSW 12 19 29.97 1015 10 16 N/A
12:15 pm 12:15 Sunny 69 20.6 57 13.7 65 65 S 12 19 29.94 1014 10 16 N/A
12:35 pm 12:35 Sunny 71 21.6 57 13.7 61 61 SSW 17 28 29.94 1014 10 16 N/A
12:55 pm 12:55 Sunny 73 22.8 58 14.2 58 58 SSW 13 20 29.94 1014 10 16 N/A
1:15 pm 13:15 Sunny 75 23.7 57 13.8 54 54 SSW 13 20 29.91 1013 10 16 N/A
1:35 pm 13:35 Sunny 76 24.4 57 14 52 52 SSW 12 19 29.91 1013 10 16 N/A
1:55 pm 13:55 Sunny 76 24.5 57 13.8 51 51 SSW 12 19 29.88 1012 10 16 N/A
2:15 pm 14:15 Sunny 77 25.1 58 14.2 51 51 SSW 14 22 29.88 1012 10 16 N/A
2:35 pm 14:35 Sunny 78 25.7 58 14.2 49 49 S 10 17 29.85 1011 10 16 N/A
2:55 pm 14:55 Sunny 79 26.1 56 13.3 45 45 SSW 12 19 29.85 1011 10 16 N/A
3:15 pm 15:15 Sunny 79 26.2 55 12.7 43 43 S 9 15 29.85 1011 10 16 N/A
3:35 pm 15:35 Sunny 80 26.8 55 12.5 41 41 S 13 20 29.80 1009 10 16 N/A
3:55 pm 15:55 Sunny 81 27 54 12.3 40 40 S 10 17 29.80 1009 10 16 N/A
4:15 pm 16:15 Sunny 81 27.2 54 12 39 39 SSW 13 20 29.80 1009 10 16 N/A
4:35 pm 16:35 Sunny 82 27.6 54 12.1 38 38 SSW 13 20 29.80 1009 10 16 N/A
4:55 pm 16:55 Sunny 81 27.3 54 12.2 39 39 SSW 9 15 29.80 1009 10 16 N/A
5:15 pm 17:15 Sunny 82 27.5 53 11.7 37 37 S 13 20 29.77 1008 10 16 N/A
5:35 pm 17:35 Sunny 81 27 54 12.3 40 40 S 9 15 29.77 1008 10 16 N/A
5:55 pm 17:55 Sunny 79 26.3 55 12.7 43 43 S 14 22 29.77 1008 10 16 N/A
6:15 pm 18:15 Sunny 78 25.8 54 12.3 43 43 S 12 19 29.77 1008 10 16 N/A
6:35 pm 18:35 Sunny 77 25 54 12.4 46 46 S 9 15 29.80 1009 10 16 N/A
6:55 pm 18:55 Sunny 74 23.5 54 12.2 49 49 S 9 15 29.80 1009 10 16 N/A
7:15 pm 19:15 Clear 71 21.5 54 12.2 56 56 S 8 13 29.83 1010 10 16 N/A
7:35 pm 19:35 Clear 69 20.3 54 12 59 59 S 8 13 29.83 1010 10 16 N/A
7:55 pm 19:55 Clear 69 20.5 54 12 58 58 S 8 13 29.83 1010 10 16 N/A
8:15 pm 20:15 Clear 69 20.4 54 12.2 59 59 S 10 17 29.80 1009 10 16 N/A
8:35 pm 20:35 Clear 69 20.5 55 12.5 60 60 S 10 17 29.80 1009 10 16 N/A
8:55 pm 20:55 Clear 68 20.2 55 12.5 61 61 S 8 13 29.80 1009 10 16 N/A
9:15 pm 21:15 Clear 69 20.4 54 12.4 60 60 S 10 17 29.80 1009 10 16 N/A
9:35 pm 21:35 Clear 68 20.2 55 12.5 61 61 S 12 19 29.80 1009 10 16 N/A
9:55 pm 21:55 Clear 67 19.7 54 12.4 63 63 S 9 15 29.80 1009 10 16 N/A
10:15 pm 22:15 Clear 68 20.2 54 12.3 61 61 SSW 9 15 29.80 1009 10 16 N/A
10:35 pm 22:35 Clear 68 20 54 12.4 62 62 SSW 14 22 29.80 1009 10 16 N/A
10:55 pm 22:55 Clear 67 19.5 54 12.3 63 63 S 12 19 29.80 1009 10 16 N/A
11:15 pm 23:15 Clear 66 18.8 54 12.3 66 66 S 10 17 29.80 1009 10 16 N/A
11:35 pm 23:35 Clear 66 18.8 54 12.3 66 66 SSW 9 15 29.77 1008 10 16 N/A
11:55 pm 23:55 Clear 65 18.3 54 12.2 68 68 S 6 9 29.80 1009 10 16 N/A

Powered by AerisWeather